Volkel, Netherlands

6:24 AM CEST on May 01, 2017 (GMT +0200)
Volkel Air Base

Weather History for EHVK - September, 2013

Change the Weather History Date:

Monday, September 2, 2013

  Actual Average Record
Temperature  
Mean Temperature 60 °F -  
Max Temperature 69 °F 64 °F 78 °F (2011)
Min Temperature 51 °F 49 °F 44 °F (1996)
Degree Days  
Heating Degree Days 5    
Growing Degree Days 10 (Base 50)    
Moisture  
Dew Point 54 °F    
Average Humidity 76    
Maximum Humidity 100    
Minimum Humidity 60    
Precipitation  
Precipitation 0.00 in - - ()
Sea Level Pressure  
Sea Level Pressure 30.23 in    
Wind  
Wind Speed 10 mph ()    
Max Wind Speed 16 mph    
Max Gust Speed -    
Visibility 6.2 miles    
Events      
Averages and records for this station are not official NWS values.
T = Trace of Precipitation, MM = Missing Value Source: Averaged Metar Reports

Daily Weather History Graph

Daily Weather History Graph

Search for Another Location

Airport or City:

Trip Planner

Search our weather history database for the weather conditions in past years. The results will help you decide how hot, cold, wet, or windy it might be!

Date:

Astronomy

Sep. 02, 2013 Rise Set
Actual Time 6:51 AM CEST 8:21 PM CEST
Civil Twilight 6:16 AM CEST 8:56 PM CEST
Nautical Twilight 5:33 AM CEST 9:38 PM CEST
Astronomical Twilight 4:46 AM CEST 10:25 PM CEST
Moon 3:39 AM CEST (9/2) 6:35 PM CEST (9/2)
Length of Visible Light 14h 39m
Length of Day
13h 30m
Waning Crescent, 9% of the Moon is Illuminated
Sep 2
Waning Crescent
Sep 5
New
Sep 12
First Quarter
Sep 19
Full
Sep 27
Last Quarter

Hourly Weather History & Observations

Time (CEST) Temp. Dew Point Humidity Pressure Visibility Wind Dir Wind Speed Gust Speed Precip Events Conditions
12:25 AM 57.2 °F 50.0 °F 77% 30.27 in 6.2 mi SW 9.2 mph - N/A   Overcast
12:55 AM 57.2 °F 50.0 °F 77% 30.27 in 6.2 mi SW 9.2 mph - N/A   Overcast
1:25 AM 59.0 °F 50.0 °F 72% 30.24 in 6.2 mi SW 13.8 mph - N/A   Overcast
1:55 AM 59.0 °F 50.0 °F 72% 30.24 in 6.2 mi SW 13.8 mph - N/A   Overcast
2:25 AM 59.0 °F 50.0 °F 72% 30.24 in 6.2 mi SW 11.5 mph - N/A   Overcast
2:55 AM 57.2 °F 50.0 °F 77% 30.24 in 6.2 mi SW 10.4 mph - N/A   Overcast
3:25 AM 57.2 °F 51.8 °F 82% 30.21 in 6.2 mi SW 10.4 mph - N/A   Overcast
3:55 AM 57.2 °F 51.8 °F 82% 30.21 in 6.2 mi SW 11.5 mph - N/A   Overcast
4:25 AM 57.2 °F 51.8 °F 82% 30.21 in 6.2 mi WSW 11.5 mph - N/A   Overcast
4:35 AM 57.2 °F 51.8 °F 82% 30.21 in 6.2 mi WSW 9.2 mph - N/A   Overcast
4:39 AM 57.2 °F 51.8 °F 82% 30.21 in 6.2 mi WSW 9.2 mph - N/A   Overcast
4:55 AM 57.2 °F 51.8 °F 82% 30.21 in 6.2 mi WSW 9.2 mph - N/A   Mostly Cloudy
4:59 AM 57.2 °F 51.8 °F 82% 30.21 in 6.2 mi WSW 9.2 mph - N/A   Mostly Cloudy
5:11 AM 57.2 °F 51.8 °F 82% 30.21 in 6.2 mi WSW 8.1 mph - N/A   Mostly Cloudy
5:14 AM 57.2 °F 51.8 °F 82% 30.21 in 6.2 mi WSW 9.2 mph - N/A   Mostly Cloudy
5:19 AM 57.2 °F 51.8 °F 82% 30.21 in 6.2 mi West 8.1 mph - N/A   Overcast
5:25 AM 55.4 °F 51.8 °F 88% 30.21 in 6.2 mi WSW 8.1 mph - N/A   Mostly Cloudy
5:31 AM 55.4 °F 51.8 °F 88% 30.21 in 6.2 mi WSW 8.1 mph - N/A   Mostly Cloudy
5:42 AM 55.4 °F 51.8 °F 88% 30.21 in 6.2 mi WSW 8.1 mph - N/A   Mostly Cloudy
5:55 AM 55.4 °F 51.8 °F 88% 30.21 in 6.2 mi WSW 9.2 mph - N/A   Partly Cloudy
6:25 AM 53.6 °F 51.8 °F 94% 30.21 in 6.2 mi WSW 8.1 mph - N/A   Partly Cloudy
6:29 AM 53.6 °F 51.8 °F 94% 30.21 in 6.2 mi WSW 9.2 mph - N/A   Scattered Clouds
6:41 AM 53.6 °F 51.8 °F 94% 30.21 in 6.2 mi SW 10.4 mph - N/A   Scattered Clouds
6:55 AM 53.6 °F 51.8 °F 94% 30.21 in 6.2 mi SW 8.1 mph - N/A   Mostly Cloudy
7:14 AM 53.6 °F 51.8 °F 94% 30.21 in 5.6 mi SW 9.2 mph - N/A   Partly Cloudy
7:25 AM 51.8 °F 51.8 °F 100% 30.21 in 5.6 mi SW 9.2 mph - N/A   Mist
7:55 AM 53.6 °F 53.6 °F 100% 30.21 in 6.2 mi SW 8.1 mph - N/A   Mostly Cloudy
8:25 AM 55.4 °F 53.6 °F 94% 30.21 in 6.2 mi SW 10.4 mph - N/A   Unknown
8:36 AM 57.2 °F 53.6 °F 88% 30.21 in 6.2 mi SW 9.2 mph - N/A   Partly Cloudy
8:55 AM 59.0 °F 53.6 °F 82% 30.21 in 6.2 mi WSW 10.4 mph - N/A   Partly Cloudy
9:25 AM 59.0 °F 51.8 °F 77% 30.21 in 6.2 mi WSW 11.5 mph - N/A   Overcast
9:55 AM 60.8 °F 53.6 °F 77% 30.21 in 6.2 mi WSW 13.8 mph - N/A   Mostly Cloudy
10:05 AM 62.6 °F 53.6 °F 72% 30.21 in 6.2 mi WSW 12.7 mph - N/A   Overcast
10:11 AM 60.8 °F 53.6 °F 77% 30.21 in 6.2 mi WSW 13.8 mph - N/A   Mostly Cloudy
10:25 AM 62.6 °F 53.6 °F 72% 30.21 in 6.2 mi West 12.7 mph - N/A   Mostly Cloudy
10:26 AM 62.6 °F 53.6 °F 72% 30.21 in 6.2 mi West 12.7 mph - N/A   Mostly Cloudy
10:55 AM 64.4 °F 53.6 °F 68% 30.24 in 6.2 mi West 10.4 mph - N/A   Overcast
11:21 AM 64.4 °F 53.6 °F 68% 30.24 in 6.2 mi West 15.0 mph - N/A   Overcast
11:25 AM 64.4 °F 53.6 °F 68% 30.24 in 6.2 mi West 15.0 mph - N/A   Overcast
11:55 AM 66.2 °F 53.6 °F 64% 30.24 in 6.2 mi West 15.0 mph - N/A   Overcast
12:25 PM 69.8 °F 55.4 °F 60% 30.21 in 6.2 mi WSW 16.1 mph - N/A   Mostly Cloudy
12:55 PM 68.0 °F 55.4 °F 64% 30.21 in 6.2 mi West 13.8 mph - N/A   Overcast
1:25 PM 68.0 °F 55.4 °F 64% 30.24 in 6.2 mi WSW 15.0 mph - N/A   Overcast
1:33 PM 66.2 °F 55.4 °F 68% 30.24 in 6.2 mi West 15.0 mph - N/A   Overcast
1:55 PM 66.2 °F 55.4 °F 68% 30.24 in 6.2 mi West 13.8 mph - N/A   Overcast
2:12 PM 68.0 °F 55.4 °F 64% 30.24 in 6.2 mi West 15.0 mph - N/A   Overcast
2:25 PM 68.0 °F 57.2 °F 68% 30.24 in 6.2 mi West 13.8 mph - N/A   Overcast
2:27 PM 68.0 °F 55.4 °F 64% 30.24 in 6.2 mi West 13.8 mph - N/A   Overcast
2:31 PM 68.0 °F 57.2 °F 68% 30.24 in 6.2 mi West 13.8 mph - N/A   Overcast
2:35 PM 68.0 °F 57.2 °F 68% 30.24 in 6.2 mi West 15.0 mph - N/A   Overcast
2:36 PM 68.0 °F 57.2 °F 68% 30.24 in 6.2 mi West 15.0 mph - N/A   Overcast
2:55 PM 68.0 °F 57.2 °F 68% 30.24 in 6.2 mi West 11.5 mph - N/A   Overcast
3:07 PM 68.0 °F 57.2 °F 68% 30.24 in 6.2 mi West 13.8 mph - N/A   Overcast
3:10 PM 69.8 °F 57.2 °F 64% 30.24 in 6.2 mi West 13.8 mph - N/A   Overcast
3:25 PM 69.8 °F 57.2 °F 64% 30.24 in 6.2 mi West 13.8 mph - N/A   Scattered Clouds
3:26 PM 69.8 °F 57.2 °F 64% 30.24 in 6.2 mi West 13.8 mph - N/A   Scattered Clouds
3:55 PM 69.8 °F 57.2 °F 64% 30.24 in 6.2 mi West 13.8 mph - N/A   Overcast
4:25 PM 69.8 °F 57.2 °F 64% 30.24 in 6.2 mi WNW 11.5 mph - N/A   Mostly Cloudy
4:32 PM 69.8 °F 57.2 °F 64% 30.24 in 6.2 mi WNW 13.8 mph - N/A   Mostly Cloudy
4:55 PM 69.8 °F 57.2 °F 64% 30.24 in 6.2 mi West 13.8 mph - N/A   Overcast
5:07 PM 69.8 °F 57.2 °F 64% 30.24 in 6.2 mi West 13.8 mph - N/A   Overcast
5:11 PM 69.8 °F 57.2 °F 64% 30.24 in 6.2 mi West 11.5 mph - N/A   Overcast
5:19 PM 68.0 °F 57.2 °F 68% 30.24 in 6.2 mi WNW 11.5 mph - N/A   Overcast
5:25 PM 68.0 °F 57.2 °F 68% 30.24 in 6.2 mi WNW 12.7 mph - N/A   Overcast
5:41 PM 68.0 °F 57.2 °F 68% 30.24 in 6.2 mi West 9.2 mph - N/A   Overcast
5:46 PM 68.0 °F 57.2 °F 68% 30.24 in 6.2 mi WNW 8.1 mph - N/A   Overcast
5:50 PM 68.0 °F 57.2 °F 68% 30.24 in 6.2 mi West 8.1 mph - N/A   Overcast
5:55 PM 68.0 °F 57.2 °F 68% 30.24 in 6.2 mi West 9.2 mph - N/A   Overcast
6:25 PM 68.0 °F 57.2 °F 68% 30.24 in 6.2 mi WNW 8.1 mph - N/A   Overcast
6:55 PM 66.2 °F 57.2 °F 73% 30.24 in 6.2 mi West 9.2 mph - N/A   Overcast
7:25 PM 66.2 °F 57.2 °F 73% 30.24 in 6.2 mi West 8.1 mph - N/A   Overcast
7:55 PM 66.2 °F 57.2 °F 73% 30.24 in 6.2 mi West 8.1 mph - N/A   Overcast
8:25 PM 66.2 °F 57.2 °F 73% 30.27 in 6.2 mi West 6.9 mph - N/A   Overcast
8:55 PM 64.4 °F 57.2 °F 77% 30.27 in 6.2 mi West 6.9 mph - N/A   Mostly Cloudy
9:04 PM 64.4 °F 57.2 °F 77% 30.27 in 6.2 mi West 6.9 mph - N/A   Partly Cloudy
9:25 PM 64.4 °F 57.2 °F 77% 30.27 in 6.2 mi West 6.9 mph - N/A   Unknown
9:55 PM 60.8 °F 55.4 °F 82% 30.27 in 6.2 mi WSW 4.6 mph - N/A   Unknown
10:25 PM 59.0 °F 55.4 °F 88% 30.30 in 6.2 mi WSW 5.8 mph - N/A   Unknown
10:55 PM 57.2 °F 55.4 °F 94% 30.30 in 6.2 mi WSW 5.8 mph - N/A   Unknown
11:25 PM 57.2 °F 53.6 °F 88% 30.30 in 6.2 mi WSW 5.8 mph - N/A   Unknown
11:55 PM 57.2 °F 55.4 °F 94% 30.30 in 6.2 mi WSW 5.8 mph - N/A   Partly Cloudy